Date_and_time,latitude,longitude,wind_speed,RelWindDirFrom,WindDirFrom,air_pressure,air_temperature,relative_humidity,Temp,platform_speed_wrt_ground,air_pressure_at_mean_sea_level,platform_orientation
2018-10-29 23:40,50.6304483333333,-96.9807683333333,11.7,15.5,155,984.68,3.7,95,4.87,0.0,1012.06,72.3
2018-10-29 23:50,50.6304483333333,-96.98077,12.1,15.2,135,984.28,4.0,96,4.87,0.0,1011.63,72.3
2018-10-30 00:00,50.6304483333333,-96.98077,11.9,15.5,129,984.17,4.2,96,4.86,0.0,1011.50,111.5
2018-10-30 00:10,50.6304483333333,-96.98077,12.8,16.3,137,984.24,3.8,95,4.86,0.0,1011.59,111.5
2018-10-30 00:20,50.6304483333333,-96.9807716666667,13.1,16.7,135,984.21,3.9,95,4.86,0.0,1011.56,111.5
2018-10-30 00:30,50.6304466666667,-96.9807716666667,13.0,16.1,132,984.04,4.0,96,4.86,0.0,1011.38,111.5
2018-10-30 00:40,50.6304466666667,-96.9807716666667,13.8,17.3,138,984.03,3.6,95,4.86,0.0,1011.39,111.5
2018-10-30 00:50,50.6304466666667,-96.9807716666667,14.4,18.0,139,984.03,3.5,94,4.86,0.0,1011.40,111.5
2018-10-30 01:00,50.6304466666667,-96.9807716666667,14.4,17.5,150,984.34,3.5,95,4.86,0.0,1011.73,142.0
2018-10-30 01:10,50.6304466666667,-96.9807716666667,14.1,16.5,150,984.40,3.5,96,4.86,0.0,1011.80,142.0
2018-10-30 01:20,50.6304466666667,-96.9807716666667,13.2,16.6,152,984.47,3.5,96,4.85,0.0,1011.88,142.0
2018-10-30 01:30,50.6304533333333,-96.9807766666667,13.9,18.4,157,984.59,3.4,96,4.85,0.0,1012.00,142.0
2018-10-30 01:40,50.6304333333333,-96.9807866666667,14.1,17.3,164,984.56,3.4,96,4.85,0.0,1011.95,142.0
2018-10-30 01:50,50.6304383333333,-96.980785,13.9,18.4,159,984.47,3.3,96,4.85,0.0,1011.85,142.0
2018-10-30 02:00,50.63044,-96.98078,14.3,18.4,159,984.49,3.2,96,4.85,0.0,1011.90,248.5
2018-10-30 02:10,50.6304433333333,-96.9807783333333,13.8,17.6,156,984.40,3.2,97,4.85,0.0,1011.81,248.5
2018-10-30 02:20,50.6304433333333,-96.9807783333333,14.3,17.8,153,984.25,3.1,98,4.85,0.0,1011.65,248.5
2018-10-30 02:30,50.6304433333333,-96.9807766666667,13.6,16.9,154,984.13,3.1,99,4.85,0.0,1011.55,248.5
2018-10-30 02:40,50.630435,-96.98077,12.5,17.2,157,984.10,3.0,99,4.86,0.0,1011.53,248.5
2018-10-30 02:50,50.6304466666667,-96.980775,12.4,15.8,161,984.00,2.9,99,4.86,0.0,1011.43,248.5
2018-10-30 03:00,50.6304433333333,-96.9807683333333,11.6,16.0,157,983.91,2.9,99,4.86,0.0,1011.34,360.0
2018-10-30 03:10,50.6304416666667,-96.9807666666667,13.3,16.7,155,983.73,2.8,99,4.86,0.0,1011.16,360.0
2018-10-30 03:20,50.6304383333333,-96.980765,13.1,17.4,155,983.65,2.8,100,4.86,0.0,1011.08,360.0
2018-10-30 03:30,50.6304333333333,-96.9807666666667,14.0,17.8,156,983.53,2.7,100,4.86,0.0,1010.97,360.0
2018-10-30 03:40,50.6304466666667,-96.980775,13.7,16.9,155,983.39,2.7,100,4.85,0.0,1010.82,360.0
2018-10-30 03:50,50.6304466666667,-96.980775,13.3,17.5,158,983.30,2.7,100,4.85,0.0,1010.73,360.0
2018-10-30 04:00,50.6304433333333,-96.98077,12.9,16.8,159,983.23,2.7,100,4.84,0.0,1010.66,167.4
2018-10-30 04:10,50.6304433333333,-96.9807716666667,13.6,17.9,160,983.08,2.7,101,4.84,0.0,1010.51,167.4
2018-10-30 04:20,50.6304433333333,-96.98077,14.1,17.6,161,982.98,2.7,101,4.84,0.0,1010.41,167.4
2018-10-30 04:30,50.630445,-96.9807716666667,14.9,17.9,165,982.93,2.7,101,4.84,0.0,1010.36,167.4
2018-10-30 04:40,50.630445,-96.98077,14.5,17.4,167,982.85,2.6,101,4.84,0.0,1010.29,167.4
2018-10-30 04:50,50.6304466666667,-96.9807716666667,12.3,14.4,170,982.81,2.6,101,4.84,0.0,1010.25,167.4
2018-10-30 05:00,50.63045,-96.9807683333333,13.2,16.7,173,982.76,2.5,101,4.84,0.0,1010.21,49.4
2018-10-30 05:10,50.6304466666667,-96.9807616666667,12.8,15.9,177,982.76,2.5,101,4.84,0.0,1010.21,49.4
2018-10-30 05:20,50.630445,-96.9807616666667,13.4,16.8,183,982.72,2.6,101,4.83,0.0,1010.17,49.4
2018-10-30 05:30,50.630445,-96.980765,13.2,17.7,182,982.58,2.5,101,4.83,0.0,1010.03,49.4
2018-10-30 05:40,50.630445,-96.9807683333333,13.5,17.5,180,982.55,2.3,101,4.83,0.0,1010.01,49.4
2018-10-30 05:50,50.6304466666667,-96.9807683333333,13.3,16.8,177,982.51,2.2,101,4.83,0.0,1009.97,49.4
2018-10-30 06:00,50.6304466666667,-96.980765,11.7,14.7,177,982.44,2.2,101,4.83,0.0,1009.90,360.0
2018-10-30 06:10,50.6304466666667,-96.980765,10.9,14.1,180,982.40,2.2,101,4.82,0.0,1009.86,360.0
2018-10-30 06:20,50.6304466666667,-96.9807666666667,11.0,13.4,176,982.29,2.2,101,4.82,0.0,1009.75,360.0
2018-10-30 06:30,50.630445,-96.9807666666667,10.8,14.5,175,982.15,2.1,101,4.82,0.0,1009.61,360.0
2018-10-30 06:40,50.630445,-96.9807666666667,11.5,15.0,174,982.02,2.1,101,4.82,0.0,1009.48,360.0
2018-10-30 06:50,50.630445,-96.9807666666667,11.2,13.4,173,981.85,2.2,101,4.82,0.0,1009.30,360.0
2018-10-30 07:00,50.6304433333333,-96.9807683333333,10.5,13.1,170,981.67,2.3,101,4.82,0.0,1009.11,0.0
2018-10-30 07:10,50.630445,-96.9807683333333,10.5,13.3,166,981.57,2.4,101,4.82,0.0,1009.01,0.0
2018-10-30 07:20,50.63042,-96.9807983333333,10.4,13.0,163,981.47,2.5,101,4.82,0.0,1008.90,0.0
2018-10-30 07:30,50.630435,-96.9807683333333,10.8,13.7,162,981.29,2.6,101,4.82,0.0,1008.72,0.0
2018-10-30 07:40,50.6304383333333,-96.9807633333333,11.1,14.4,160,981.14,2.6,101,4.81,0.0,1008.57,0.0
2018-10-30 07:50,50.6304366666667,-96.9807666666667,12.2,15.1,162,981.03,2.7,101,4.81,0.0,1008.45,0.0
2018-10-30 08:00,50.6304383333333,-96.9807666666667,11.9,15.3,159,980.86,2.7,101,4.81,0.0,1008.28,360.0
2018-10-30 08:10,50.6304383333333,-96.9807666666667,11.3,15.2,158,980.76,2.7,101,4.81,0.0,1008.18,360.0
2018-10-30 08:20,50.63044,-96.9807666666667,11.7,15.7,158,980.62,2.6,102,4.80,0.0,1008.04,360.0
2018-10-30 08:30,50.6304416666667,-96.9807683333333,12.3,15.5,159,980.55,2.6,102,4.80,0.0,1007.97,360.0
2018-10-30 08:40,50.6304433333333,-96.9807666666667,12.6,16.0,160,980.43,2.5,102,4.80,0.0,1007.84,360.0
2018-10-30 08:50,50.630445,-96.9807666666667,13.0,15.7,167,980.30,2.6,102,4.79,0.0,1007.70,360.0
2018-10-30 09:00,50.630445,-96.9807666666667,12.9,16.3,171,980.25,2.6,102,4.79,0.0,1007.64,360.0
2018-10-30 09:10,50.630445,-96.9807666666667,11.5,13.9,172,980.18,2.5,102,4.79,0.0,1007.57,360.0
2018-10-30 09:20,50.6304466666667,-96.9807666666667,11.1,13.2,172,980.04,2.5,103,4.79,0.0,1007.42,360.0
2018-10-30 09:30,50.6304466666667,-96.9807666666667,10.6,12.7,174,979.96,2.5,103,4.79,0.0,1007.34,360.0
2018-10-30 09:40,50.6304666666667,-96.9807833333333,9.9,12.1,177,979.91,2.6,103,4.79,0.0,1007.28,360.0
2018-10-30 09:50,50.6304633333333,-96.9807766666667,10.0,12.2,177,979.80,2.7,103,4.78,0.0,1007.16,360.0
2018-10-30 10:00,50.63046,-96.98078,9.6,11.8,180,979.79,2.7,103,4.78,0.0,1007.15,328.9
2018-10-30 10:10,50.6304433333333,-96.980785,9.3,12.0,186,979.76,2.8,103,4.78,0.0,1007.13,328.9
2018-10-30 10:20,50.630425,-96.9807783333333,8.4,10.9,189,979.77,2.9,103,4.77,0.0,1007.13,328.9
2018-10-30 10:30,50.63044,-96.9807766666667,8.9,12.5,188,979.66,2.9,103,4.77,0.0,1007.01,328.9
2018-10-30 10:40,50.63044,-96.98077,8.9,11.3,186,979.52,3.0,103,4.78,0.0,1006.87,328.9
2018-10-30 10:50,50.6304416666667,-96.98077,8.3,12.0,194,979.49,3.1,103,4.78,0.0,1006.83,328.9
2018-10-30 11:00,50.6304433333333,-96.98077,7.2,9.5,198,979.44,3.1,103,4.78,0.0,1006.78,90.0
2018-10-30 11:10,50.6304433333333,-96.98077,6.9,9.8,202,979.37,3.2,103,4.77,0.0,1006.70,90.0
2018-10-30 11:20,50.6304433333333,-96.98077,6.8,9.4,201,979.35,3.2,103,4.77,0.0,1006.68,90.0
2018-10-30 11:30,50.6304433333333,-96.98077,6.4,8.6,200,979.29,3.3,103,4.77,0.0,1006.61,90.0
2018-10-30 11:40,50.6304433333333,-96.98077,6.3,8.3,201,979.23,3.3,103,4.77,0.0,1006.55,90.0
2018-10-30 11:50,50.6304416666667,-96.9807766666667,6.6,8.9,200,979.18,3.3,104,4.77,0.0,1006.49,90.0
2018-10-30 12:00,50.630435,-96.980765,6.7,8.8,206,979.17,3.4,104,4.77,0.0,1006.48,142.0
2018-10-30 12:10,50.6304383333333,-96.9807633333333,6.7,8.3,210,979.16,3.4,104,4.77,0.0,1006.46,142.0
2018-10-30 12:20,50.6304366666667,-96.980765,5.6,7.9,213,979.14,3.5,103,4.77,0.0,1006.43,142.0
2018-10-30 12:30,50.6304333333333,-96.9807666666667,5.5,7.1,217,979.14,3.5,103,4.77,0.0,1006.43,142.0
2018-10-30 12:40,50.630435,-96.9807683333333,5.8,7.2,214,979.14,3.6,103,4.77,0.0,1006.42,142.0
2018-10-30 12:50,50.6304383333333,-96.9807783333333,5.4,6.9,216,979.16,3.6,103,4.77,0.0,1006.44,142.0
2018-10-30 13:00,50.6304483333333,-96.9807866666667,5.3,8.2,223,979.14,3.7,103,4.76,0.0,1006.41,194.5
2018-10-30 13:10,50.6304433333333,-96.9807833333333,5.7,7.6,228,979.12,3.9,103,4.76,0.0,1006.38,194.5
2018-10-30 13:20,50.6304466666667,-96.9807833333333,5.7,7.8,226,979.10,4.0,102,4.76,0.0,1006.34,194.5
2018-10-30 13:30,50.630445,-96.9807816666667,5.5,8.3,232,979.11,4.1,101,4.76,0.0,1006.36,194.5
2018-10-30 13:40,50.630445,-96.9807816666667,5.3,8.0,234,979.18,4.1,101,4.76,0.0,1006.42,194.5
2018-10-30 13:50,50.6304233333333,-96.98078,5.5,8.3,236,979.27,4.2,101,4.76,0.0,1006.51,194.5
2018-10-30 14:00,50.6304416666667,-96.9807683333333,5.4,8.4,229,979.31,4.2,100,4.76,0.0,1006.55,0.0
2018-10-30 14:10,50.6304483333333,-96.9807833333333,5.5,8.7,225,979.34,4.2,100,4.76,0.0,1006.58,0.0
2018-10-30 14:20,50.6304416666667,-96.9807783333333,6.1,8.9,225,979.30,4.2,100,4.76,0.0,1006.53,0.0
2018-10-30 14:30,50.630445,-96.9807783333333,5.5,8.1,223,979.24,4.2,100,4.77,0.0,1006.47,0.0
2018-10-30 14:40,50.630435,-96.9807766666667,5.8,8.2,225,979.22,4.3,100,4.78,0.0,1006.44,0.0
2018-10-30 14:50,50.630435,-96.980765,6.4,9.2,222,979.25,4.3,100,4.78,0.0,1006.46,0.0
2018-10-30 15:00,50.6304766666667,-96.9807683333333,7.3,9.9,223,979.31,4.4,100,4.78,0.0,1006.51,360.0
2018-10-30 15:10,50.6304483333333,-96.9807666666667,7.3,10.7,218,979.31,4.4,100,4.78,0.0,1006.51,360.0
2018-10-30 15:20,50.6304433333333,-96.98078,8.4,12.0,218,979.31,4.6,99,4.79,0.0,1006.49,360.0
2018-10-30 15:30,50.6304666666667,-96.980775,7.6,10.5,225,979.28,4.6,99,4.79,0.0,1006.46,360.0
2018-10-30 15:40,50.630445,-96.9807716666667,7.7,10.4,223,979.20,4.7,99,4.78,0.0,1006.37,360.0
2018-10-30 15:50,50.6304466666667,-96.9807683333333,7.9,11.3,223,979.16,4.7,99,4.78,0.0,1006.33,360.0
2018-10-30 16:00,50.6304516666667,-96.9807616666667,7.2,10.2,227,979.14,4.7,99,4.78,0.0,1006.31,75.8
2018-10-30 16:10,50.6304416666667,-96.980765,8.2,11.5,227,979.08,4.7,99,4.78,0.0,1006.25,75.8
2018-10-30 16:20,50.6304433333333,-96.9807666666667,8.1,12.0,221,978.99,4.8,99,4.78,0.0,1006.15,75.8
2018-10-30 16:30,50.630445,-96.9807683333333,8.9,12.1,225,978.94,4.9,99,4.78,0.0,1006.09,75.8
2018-10-30 16:40,50.630445,-96.9807716666667,9.4,13.3,225,978.91,4.9,97,4.78,0.0,1006.06,75.8
2018-10-30 16:50,50.630445,-96.98077,10.5,15.2,230,978.89,4.9,96,4.79,0.0,1006.03,75.8
2018-10-30 17:00,50.630445,-96.9807716666667,9.8,13.2,229,978.89,4.8,96,4.79,0.0,1006.04,270.0
2018-10-30 17:10,50.6304433333333,-96.9807966666667,9.5,14.0,223,978.89,4.9,96,4.79,0.0,1006.03,270.0
2018-10-30 17:20,50.6304516666667,-96.9807833333333,9.9,13.9,223,978.93,5.2,91,4.79,0.0,1006.05,270.0
2018-10-30 17:30,50.6304516666667,-96.9807766666667,11.2,16.8,219,978.86,5.3,90,4.80,0.0,1005.97,270.0
2018-10-30 17:40,50.6304533333333,-96.9807733333333,10.6,15.4,223,978.83,5.2,90,4.81,0.0,1005.94,270.0
2018-10-30 17:50,50.6304516666667,-96.98077,9.3,13.8,225,978.81,5.2,89,4.83,0.0,1005.92,270.0
2018-10-30 18:00,50.6304516666667,-96.9807683333333,9.6,13.5,229,978.79,5.1,89,4.84,0.0,1005.91,170.2
2018-10-30 18:10,50.63044,-96.9807716666667,10.4,15.2,230,978.79,5.1,88,4.85,0.0,1005.90,170.2
2018-10-30 18:20,50.6304433333333,-96.98077,11.1,16.8,229,978.73,5.1,87,4.86,0.0,1005.83,170.2
2018-10-30 18:30,50.6304316666667,-96.9807683333333,10.1,16.6,231,978.67,5.0,88,4.86,0.0,1005.77,170.2
2018-10-30 18:40,50.6304266666667,-96.980775,9.1,13.6,236,978.67,5.1,88,4.87,0.0,1005.78,170.2
2018-10-30 18:50,50.6304316666667,-96.9807716666667,10.7,14.5,237,978.67,5.1,87,4.88,0.0,1005.78,170.2
2018-10-30 19:00,50.6304333333333,-96.9807783333333,10.5,16.4,238,978.65,5.1,86,4.88,0.0,1005.75,216.6
2018-10-30 19:10,50.6304316666667,-96.980775,10.3,15.2,236,978.64,5.1,87,4.89,0.0,1005.72,216.6
2018-10-30 19:20,50.6304516666667,-96.9807683333333,11.1,15.5,234,978.66,5.1,86,4.90,0.0,1005.74,216.6
2018-10-30 19:30,50.6304516666667,-96.9807683333333,10.6,16.5,230,978.55,5.1,85,4.91,0.0,1005.63,216.6
2018-10-30 19:40,50.6304483333333,-96.980775,11.1,16.5,232,978.56,5.2,85,4.91,0.0,1005.63,216.6
2018-10-30 19:50,50.6304416666667,-96.98076,11.4,15.2,230,978.57,5.3,84,4.91,0.0,1005.65,216.6
2018-10-30 20:00,50.6304483333333,-96.9807666666667,10.0,15.6,226,978.52,5.3,85,4.92,0.0,1005.60,12.6
2018-10-30 20:10,50.6304483333333,-96.9807683333333,10.8,15.8,223,978.47,5.4,85,4.92,0.0,1005.55,12.6
2018-10-30 20:20,50.6304466666667,-96.9807683333333,11.3,19.0,225,978.39,5.4,84,4.92,0.0,1005.46,12.6
2018-10-30 20:30,50.6304466666667,-96.9807683333333,12.0,16.6,224,978.39,5.5,84,4.92,0.0,1005.46,12.6
2018-10-30 20:40,50.6304466666667,-96.98077,11.5,16.5,223,978.34,5.5,84,4.92,0.0,1005.40,12.6
2018-10-30 20:50,50.6304466666667,-96.98077,10.4,15.0,221,978.32,5.4,85,4.93,0.0,1005.39,12.6
2018-10-30 21:00,50.6304466666667,-96.9807683333333,10.6,15.3,225,978.27,5.4,85,4.93,0.0,1005.34,360.0
2018-10-30 21:10,50.6304483333333,-96.9807616666667,10.4,14.8,222,978.26,5.4,86,4.93,0.0,1005.33,360.0
2018-10-30 21:20,50.630445,-96.9807633333333,9.4,13.3,223,978.21,5.3,86,4.93,0.0,1005.27,360.0
2018-10-30 21:30,50.6304433333333,-96.9807566666667,9.3,13.9,219,978.17,5.3,87,4.94,0.0,1005.23,360.0
2018-10-30 21:40,50.6304433333333,-96.98076,10.2,14.6,220,978.18,5.4,86,4.94,0.0,1005.23,360.0
2018-10-30 21:50,50.6304433333333,-96.9807616666667,10.2,15.2,217,978.15,5.4,86,4.95,0.0,1005.20,360.0
2018-10-30 22:00,50.630445,-96.9807633333333,10.9,15.8,222,978.13,5.5,84,4.95,0.0,1005.17,55.2
2018-10-30 22:10,50.630445,-96.9807616666667,10.3,13.8,223,978.17,5.5,84,4.95,0.0,1005.20,55.2
2018-10-30 22:20,50.630435,-96.9807533333333,10.2,14.7,228,978.24,5.5,85,4.95,0.0,1005.28,55.2
2018-10-30 22:30,50.6304416666667,-96.98076,10.0,16.7,235,978.32,5.4,85,4.95,0.0,1005.37,55.2
2018-10-30 22:40,50.6304466666667,-96.9807566666667,8.1,12.7,238,978.35,5.3,88,4.95,0.0,1005.41,55.2
2018-10-30 22:50,50.6304416666667,-96.980765,7.6,13.8,256,978.33,5.2,89,4.95,0.0,1005.39,55.2
2018-10-30 23:00,50.6304466666667,-96.9807633333333,9.0,16.4,271,978.37,4.5,89,4.94,0.0,1005.47,0.0
2018-10-30 23:10,50.6304516666667,-96.9807633333333,9.3,17.0,264,978.43,4.1,89,4.95,0.0,1005.55,0.0
2018-10-30 23:20,50.6304533333333,-96.9807633333333,10.5,16.0,262,978.47,4.0,87,4.95,0.0,1005.60,0.0
2018-10-30 23:30,50.630455,-96.9807666666667,8.7,13.6,255,978.50,3.7,91,4.95,0.0,1005.64,0.0
2018-10-30 23:40,50.6304566666667,-96.9807666666667,8.4,13.4,249,978.56,3.6,93,4.94,0.0,1005.71,0.0
2018-10-30 23:50,50.6304566666667,-96.9807666666667,8.8,14.4,257,978.61,3.6,94,4.94,0.0,1005.75,0.0
